User: anonymous   Login
Location: *
(49.5667°N, 1.3667°W)
Time: 20:10:37
(UTC+00:00)
Language:

Cosmos 1437 Rocket - Orbit

View from above orbital plane
View from above orbital plane
View from above satellite
View from above satellite

Ground track
Ground track

The orbit data is extracted from the following two-line orbital elements,

1 13771U 83003B   19315.44175795 -.00000334  00000-0 -21387-4 0  9991
2 13771  81.1663  71.9190 0040651 339.3324  20.6255 15.10475145  6184
Epoch (UTC): 11 November 2019 10:36:07
Eccentricity: 0.0040651
inclination: 81.1663°
perigee height: 506 km
apogee height: 563 km
right ascension of ascending node: 71.9190°
argument of perigee: 339.3324°
revolutions per day: 15.10475145
mean anomaly at epoch: 20.6255°
orbit number at epoch: 618

The dashed part of the orbit path shows where the satellite is in the earth's shadow,  

DLR